Year,Month,Day,Hour,Minute,Value (Times are PST for temperature in C)
2009,04,17,00,00,8.60
2009,04,17,00,01,8.60
2009,04,17,00,02,8.50
2009,04,17,00,03,8.50
2009,04,17,00,04,8.50
2009,04,17,00,05,8.40
2009,04,17,00,06,8.40
2009,04,17,00,07,8.40
2009,04,17,00,08,8.40
2009,04,17,00,09,8.40
2009,04,17,00,10,8.40
2009,04,17,00,11,8.40
2009,04,17,00,12,8.40
2009,04,17,00,13,8.30
2009,04,17,00,14,8.30
2009,04,17,00,15,8.30
2009,04,17,00,16,8.30
2009,04,17,00,17,8.30
2009,04,17,00,18,8.30
2009,04,17,00,19,8.30
2009,04,17,00,20,8.30
2009,04,17,00,21,8.30
2009,04,17,00,22,8.30
2009,04,17,00,23,8.30
2009,04,17,00,24,8.30
2009,04,17,00,25,8.30
2009,04,17,00,26,8.30
2009,04,17,00,27,8.30
2009,04,17,00,28,8.30
2009,04,17,00,29,8.20
2009,04,17,00,30,8.20
2009,04,17,00,31,8.20
2009,04,17,00,32,8.30
2009,04,17,00,33,8.30
2009,04,17,00,34,8.30
2009,04,17,00,35,8.30
2009,04,17,00,36,8.20
2009,04,17,00,37,8.20
2009,04,17,00,38,8.20
2009,04,17,00,39,8.20
2009,04,17,00,40,8.20
2009,04,17,00,41,8.20
2009,04,17,00,42,8.20
2009,04,17,00,43,8.20
2009,04,17,00,44,8.20
2009,04,17,00,45,8.20
2009,04,17,00,46,8.10
2009,04,17,00,47,8.10
2009,04,17,00,48,8.10
2009,04,17,00,49,8.10
2009,04,17,00,50,8.10
2009,04,17,00,51,8.00
2009,04,17,00,52,8.00
2009,04,17,00,53,8.00
2009,04,17,00,54,8.00
2009,04,17,00,55,8.00
2009,04,17,00,56,7.90
2009,04,17,00,57,7.90
2009,04,17,00,58,7.90
2009,04,17,00,59,7.90
2009,04,17,01,00,7.90
2009,04,17,01,01,7.90
2009,04,17,01,02,7.90
2009,04,17,01,03,7.90
2009,04,17,01,04,7.90
2009,04,17,01,05,7.90
2009,04,17,01,06,7.90
2009,04,17,01,07,7.90
2009,04,17,01,08,7.90
2009,04,17,01,09,7.90
2009,04,17,01,10,7.90
2009,04,17,01,11,7.90
2009,04,17,01,12,8.00
2009,04,17,01,13,8.00
2009,04,17,01,14,8.00
2009,04,17,01,15,8.00
2009,04,17,01,16,8.00
2009,04,17,01,17,8.00
2009,04,17,01,18,8.00
2009,04,17,01,19,8.00
2009,04,17,01,20,8.00
2009,04,17,01,21,8.00
2009,04,17,01,22,8.00
2009,04,17,01,23,8.00
2009,04,17,01,24,8.00
2009,04,17,01,25,8.00
2009,04,17,01,26,7.90
2009,04,17,01,27,7.90
2009,04,17,01,28,7.90
2009,04,17,01,29,7.90
2009,04,17,01,30,7.90
2009,04,17,01,31,7.90
2009,04,17,01,32,7.90
2009,04,17,01,33,7.90
2009,04,17,01,34,7.90
2009,04,17,01,35,7.90
2009,04,17,01,36,7.90
2009,04,17,01,37,7.90
2009,04,17,01,38,7.90
2009,04,17,01,39,7.90
2009,04,17,01,40,7.90
2009,04,17,01,41,7.90
2009,04,17,01,42,7.90
2009,04,17,01,43,7.90
2009,04,17,01,44,7.90
2009,04,17,01,45,7.90
2009,04,17,01,46,7.90
2009,04,17,01,47,7.90
2009,04,17,01,48,7.90
2009,04,17,01,49,7.90
2009,04,17,01,50,7.90
2009,04,17,01,51,7.90
2009,04,17,01,52,7.90
2009,04,17,01,53,7.90
2009,04,17,01,54,7.90
2009,04,17,01,55,7.90
2009,04,17,01,56,7.90
2009,04,17,01,57,7.90
2009,04,17,01,58,7.90
2009,04,17,01,59,7.90
2009,04,17,02,00,7.90
2009,04,17,02,01,7.90
2009,04,17,02,02,7.90
2009,04,17,02,03,7.80
2009,04,17,02,04,7.90
2009,04,17,02,05,7.80
2009,04,17,02,06,7.90
2009,04,17,02,07,7.90
2009,04,17,02,08,7.80
2009,04,17,02,09,7.90
2009,04,17,02,10,7.90
2009,04,17,02,11,7.90
2009,04,17,02,12,7.80
2009,04,17,02,13,7.90
2009,04,17,02,14,7.90
2009,04,17,02,15,7.90
2009,04,17,02,16,7.90
2009,04,17,02,17,7.90
2009,04,17,02,18,7.90
2009,04,17,02,19,7.90
2009,04,17,02,20,7.90
2009,04,17,02,21,7.90
2009,04,17,02,22,7.90
2009,04,17,02,23,7.90
2009,04,17,02,24,7.90
2009,04,17,02,25,7.90
2009,04,17,02,26,7.90
2009,04,17,02,27,7.90
2009,04,17,02,28,7.90
2009,04,17,02,29,7.90
2009,04,17,02,30,7.90
2009,04,17,02,31,7.90
2009,04,17,02,32,7.90
2009,04,17,02,33,7.90
2009,04,17,02,34,7.90
2009,04,17,02,35,7.90
2009,04,17,02,36,7.90
2009,04,17,02,37,7.90
2009,04,17,02,38,7.90
2009,04,17,02,39,7.90
2009,04,17,02,40,7.90
2009,04,17,02,41,7.90
2009,04,17,02,42,7.90
2009,04,17,02,43,7.90
2009,04,17,02,44,7.90
2009,04,17,02,45,7.90
2009,04,17,02,46,7.90
2009,04,17,02,47,7.90
2009,04,17,02,48,7.90
2009,04,17,02,49,7.90
2009,04,17,02,50,7.90
2009,04,17,02,51,7.90
2009,04,17,02,52,7.90
2009,04,17,02,53,7.90
2009,04,17,02,54,7.90
2009,04,17,02,55,7.90
2009,04,17,02,56,7.90
2009,04,17,02,57,7.90
2009,04,17,02,58,7.90
2009,04,17,02,59,7.90
2009,04,17,03,00,7.90
2009,04,17,03,01,7.90
2009,04,17,03,02,7.90
2009,04,17,03,03,7.90
2009,04,17,03,04,7.90
2009,04,17,03,05,7.90
2009,04,17,03,06,7.90
2009,04,17,03,07,7.90
2009,04,17,03,08,7.90
2009,04,17,03,09,7.90
2009,04,17,03,10,7.90
2009,04,17,03,11,7.90
2009,04,17,03,12,7.90
2009,04,17,03,13,7.90
2009,04,17,03,14,7.90
2009,04,17,03,15,7.90
2009,04,17,03,16,7.90
2009,04,17,03,17,7.90
2009,04,17,03,18,7.90
2009,04,17,03,19,7.90
2009,04,17,03,20,7.90
2009,04,17,03,21,7.90
2009,04,17,03,22,7.90
2009,04,17,03,23,7.90
2009,04,17,03,24,7.90
2009,04,17,03,25,7.90
2009,04,17,03,26,7.90
2009,04,17,03,27,7.90
2009,04,17,03,28,7.90
2009,04,17,03,29,7.90
2009,04,17,03,30,7.90
2009,04,17,03,31,7.90
2009,04,17,03,32,7.90
2009,04,17,03,33,7.90
2009,04,17,03,34,7.90
2009,04,17,03,35,7.90
2009,04,17,03,36,7.90
2009,04,17,03,37,7.90
2009,04,17,03,38,7.90
2009,04,17,03,39,7.90
2009,04,17,03,40,7.90
2009,04,17,03,41,7.90
2009,04,17,03,42,7.90
2009,04,17,03,43,7.90
2009,04,17,03,44,7.90
2009,04,17,03,45,7.90
2009,04,17,03,46,7.90
2009,04,17,03,47,7.90
2009,04,17,03,48,7.90
2009,04,17,03,49,7.90
2009,04,17,03,50,7.90
2009,04,17,03,51,7.90
2009,04,17,03,52,7.90
2009,04,17,03,53,7.90
2009,04,17,03,54,8.00
2009,04,17,03,55,8.00
2009,04,17,03,56,8.00
2009,04,17,03,57,8.00
2009,04,17,03,58,8.00
2009,04,17,03,59,8.00
2009,04,17,04,00,8.00
2009,04,17,04,01,8.00
2009,04,17,04,02,8.00
2009,04,17,04,03,8.00
2009,04,17,04,04,8.00
2009,04,17,04,05,8.00
2009,04,17,04,06,8.00
2009,04,17,04,07,8.00
2009,04,17,04,08,8.00
2009,04,17,04,09,8.00
2009,04,17,04,10,8.00
2009,04,17,04,11,8.00
2009,04,17,04,12,8.00
2009,04,17,04,13,8.00
2009,04,17,04,14,8.00
2009,04,17,04,15,8.00
2009,04,17,04,16,8.00
2009,04,17,04,17,8.00
2009,04,17,04,18,7.90
2009,04,17,04,19,7.90
2009,04,17,04,20,7.90
2009,04,17,04,21,7.90
2009,04,17,04,22,7.90
2009,04,17,04,23,8.00
2009,04,17,04,24,8.00
2009,04,17,04,25,8.00
2009,04,17,04,26,8.00
2009,04,17,04,27,8.00
2009,04,17,04,28,7.90
2009,04,17,04,29,8.00
2009,04,17,04,30,7.90
2009,04,17,04,31,8.00
2009,04,17,04,32,8.00
2009,04,17,04,33,8.00
2009,04,17,04,34,8.00
2009,04,17,04,35,8.00
2009,04,17,04,36,8.00
2009,04,17,04,37,8.00
2009,04,17,04,38,8.00
2009,04,17,04,39,8.00
2009,04,17,04,40,8.00
2009,04,17,04,41,8.00
2009,04,17,04,42,8.00
2009,04,17,04,43,8.00
2009,04,17,04,44,7.90
2009,04,17,04,45,7.90
2009,04,17,04,46,7.90
2009,04,17,04,47,7.90
2009,04,17,04,48,7.90
2009,04,17,04,49,7.90
2009,04,17,04,50,7.90
2009,04,17,04,51,8.00
2009,04,17,04,52,7.90
2009,04,17,04,53,7.90
2009,04,17,04,54,7.90
2009,04,17,04,55,7.90
2009,04,17,04,56,7.90
2009,04,17,04,57,7.90
2009,04,17,04,58,7.90
2009,04,17,04,59,7.90
2009,04,17,05,00,7.90
2009,04,17,05,01,7.90
2009,04,17,05,02,7.90
2009,04,17,05,03,7.90
2009,04,17,05,04,7.90
2009,04,17,05,05,7.90
2009,04,17,05,06,8.00
2009,04,17,05,07,8.00
2009,04,17,05,08,8.00
2009,04,17,05,09,7.90
2009,04,17,05,10,7.90
2009,04,17,05,11,7.90
2009,04,17,05,12,7.90
2009,04,17,05,13,7.90
2009,04,17,05,14,7.90
2009,04,17,05,15,7.90
2009,04,17,05,16,7.90
2009,04,17,05,17,7.90
2009,04,17,05,18,7.90
2009,04,17,05,19,7.90
2009,04,17,05,20,7.90
2009,04,17,05,21,7.90
2009,04,17,05,22,7.90
2009,04,17,05,23,7.90
2009,04,17,05,24,7.90
2009,04,17,05,25,7.90
2009,04,17,05,26,7.90
2009,04,17,05,27,7.90
2009,04,17,05,28,7.90
2009,04,17,05,29,7.90
2009,04,17,05,30,7.90
2009,04,17,05,31,7.90
2009,04,17,05,32,7.90
2009,04,17,05,33,7.90
2009,04,17,05,34,7.90
2009,04,17,05,35,7.90
2009,04,17,05,36,7.90
2009,04,17,05,37,7.90
2009,04,17,05,38,7.90
2009,04,17,05,39,7.90
2009,04,17,05,40,7.90
2009,04,17,05,41,7.90
2009,04,17,05,42,7.90
2009,04,17,05,43,7.90
2009,04,17,05,44,7.90
2009,04,17,05,45,7.90
2009,04,17,05,46,7.90
2009,04,17,05,47,7.90
2009,04,17,05,48,7.90
2009,04,17,05,49,7.90
2009,04,17,05,50,7.90
2009,04,17,05,51,7.90
2009,04,17,05,52,7.90
2009,04,17,05,53,7.90
2009,04,17,05,54,7.90
2009,04,17,05,55,7.90
2009,04,17,05,56,7.90
2009,04,17,05,57,7.90
2009,04,17,05,58,7.90
2009,04,17,05,59,7.90
2009,04,17,06,00,7.90
2009,04,17,06,01,7.90
2009,04,17,06,02,7.90
2009,04,17,06,03,7.90
2009,04,17,06,04,7.90
2009,04,17,06,05,7.90
2009,04,17,06,06,7.90
2009,04,17,06,07,7.90
2009,04,17,06,08,7.90
2009,04,17,06,09,7.90
2009,04,17,06,10,7.90
2009,04,17,06,11,7.90
2009,04,17,06,12,7.90
2009,04,17,06,13,7.90
2009,04,17,06,14,7.90
2009,04,17,06,15,7.90
2009,04,17,06,16,7.90
2009,04,17,06,17,7.90
2009,04,17,06,18,7.90
2009,04,17,06,19,7.90
2009,04,17,06,20,8.00
2009,04,17,06,21,8.00
2009,04,17,06,22,8.00
2009,04,17,06,23,8.00
2009,04,17,06,24,8.00
2009,04,17,06,25,8.00
2009,04,17,06,26,8.00
2009,04,17,06,27,8.00
2009,04,17,06,28,8.00
2009,04,17,06,29,8.00
2009,04,17,06,30,8.00
2009,04,17,06,31,8.00
2009,04,17,06,32,8.00
2009,04,17,06,33,8.00
2009,04,17,06,34,8.00
2009,04,17,06,35,8.00
2009,04,17,06,36,8.00
2009,04,17,06,37,8.00
2009,04,17,06,38,8.00
2009,04,17,06,39,8.00
2009,04,17,06,40,8.00
2009,04,17,06,41,8.00
2009,04,17,06,42,8.00
2009,04,17,06,43,8.00
2009,04,17,06,44,8.00
2009,04,17,06,45,8.00
2009,04,17,06,46,8.00
2009,04,17,06,47,8.00
2009,04,17,06,48,7.90
2009,04,17,06,49,8.00
2009,04,17,06,50,7.90
2009,04,17,06,51,7.90
2009,04,17,06,52,8.00
2009,04,17,06,53,8.00
2009,04,17,06,54,7.90
2009,04,17,06,55,7.90
2009,04,17,06,56,7.90
2009,04,17,06,57,7.90
2009,04,17,06,58,7.90
2009,04,17,06,59,7.90
2009,04,17,07,00,7.90
2009,04,17,07,01,7.90
2009,04,17,07,02,7.90
2009,04,17,07,03,7.90
2009,04,17,07,04,7.90
2009,04,17,07,05,7.90
2009,04,17,07,06,7.90
2009,04,17,07,07,8.00
2009,04,17,07,08,8.00
2009,04,17,07,09,8.00
2009,04,17,07,10,8.00
2009,04,17,07,11,8.00
2009,04,17,07,12,8.00
2009,04,17,07,13,8.00
2009,04,17,07,14,8.00
2009,04,17,07,15,8.00
2009,04,17,07,16,8.00
2009,04,17,07,17,8.00
2009,04,17,07,18,8.00
2009,04,17,07,19,8.10
2009,04,17,07,20,8.10
2009,04,17,07,21,8.10
2009,04,17,07,22,8.10
2009,04,17,07,23,8.10
2009,04,17,07,24,8.10
2009,04,17,07,25,8.10
2009,04,17,07,26,8.10
2009,04,17,07,27,8.10
2009,04,17,07,28,8.10
2009,04,17,07,29,8.10
2009,04,17,07,30,8.10
2009,04,17,07,31,8.10
2009,04,17,07,32,8.10
2009,04,17,07,33,8.10
2009,04,17,07,34,8.10
2009,04,17,07,35,8.00
2009,04,17,07,36,8.00
2009,04,17,07,37,8.00
2009,04,17,07,38,8.00
2009,04,17,07,39,8.10
2009,04,17,07,40,8.00
2009,04,17,07,41,8.10
2009,04,17,07,42,8.10
2009,04,17,07,43,8.10
2009,04,17,07,44,8.10
2009,04,17,07,45,8.10
2009,04,17,07,46,8.10
2009,04,17,07,47,8.10
2009,04,17,07,48,8.10
2009,04,17,07,49,8.10
2009,04,17,07,50,8.10
2009,04,17,07,51,8.20
2009,04,17,07,52,8.20
2009,04,17,07,53,8.20
2009,04,17,07,54,8.20
2009,04,17,07,55,8.20
2009,04,17,07,56,8.20
2009,04,17,07,57,8.20
2009,04,17,07,58,8.30
2009,04,17,07,59,8.30
2009,04,17,08,00,8.30
2009,04,17,08,01,8.30
2009,04,17,08,02,8.30
2009,04,17,08,03,8.30
2009,04,17,08,04,8.30
2009,04,17,08,05,8.30
2009,04,17,08,06,8.30
2009,04,17,08,07,8.30
2009,04,17,08,08,8.30
2009,04,17,08,09,8.30
2009,04,17,08,10,8.40
2009,04,17,08,11,8.40
2009,04,17,08,12,8.50
2009,04,17,08,13,8.50
2009,04,17,08,14,8.50
2009,04,17,08,15,8.50
2009,04,17,08,16,8.60
2009,04,17,08,17,8.60
2009,04,17,08,18,8.60
2009,04,17,08,19,8.60
2009,04,17,08,20,8.60
2009,04,17,08,21,8.70
2009,04,17,08,22,8.70
2009,04,17,08,23,8.70
2009,04,17,08,24,8.70
2009,04,17,08,25,8.70
2009,04,17,08,26,8.70
2009,04,17,08,27,8.70
2009,04,17,08,28,8.80
2009,04,17,08,29,8.80
2009,04,17,08,30,8.80
2009,04,17,08,31,8.70
2009,04,17,08,32,8.70
2009,04,17,08,33,8.70
2009,04,17,08,34,8.70
2009,04,17,08,35,8.70
2009,04,17,08,36,8.70
2009,04,17,08,37,8.70
2009,04,17,08,38,8.70
2009,04,17,08,39,8.70
2009,04,17,08,40,8.80
2009,04,17,08,41,8.80
2009,04,17,08,42,8.80
2009,04,17,08,43,8.80
2009,04,17,08,44,8.90
2009,04,17,08,45,8.90
2009,04,17,08,46,8.90
2009,04,17,08,47,8.80
2009,04,17,08,48,8.80
2009,04,17,08,49,8.80
2009,04,17,08,50,8.80
2009,04,17,08,51,8.80
2009,04,17,08,52,8.80
2009,04,17,08,53,8.80
2009,04,17,08,54,8.80
2009,04,17,08,55,8.80
2009,04,17,08,56,8.80
2009,04,17,08,57,8.80
2009,04,17,08,58,8.80
2009,04,17,08,59,8.80
2009,04,17,09,00,8.90
2009,04,17,09,01,8.90
2009,04,17,09,02,9.00
2009,04,17,09,03,9.00
2009,04,17,09,04,9.00
2009,04,17,09,05,9.10
2009,04,17,09,06,9.10
2009,04,17,09,07,9.10
2009,04,17,09,08,9.10
2009,04,17,09,09,9.10
2009,04,17,09,10,9.10
2009,04,17,09,11,9.10
2009,04,17,09,12,9.10
2009,04,17,09,13,9.20
2009,04,17,09,14,9.20
2009,04,17,09,15,9.20
2009,04,17,09,16,9.20
2009,04,17,09,17,9.20
2009,04,17,09,18,9.20
2009,04,17,09,19,9.20
2009,04,17,09,20,9.20
2009,04,17,09,21,9.20
2009,04,17,09,22,9.10
2009,04,17,09,23,9.10
2009,04,17,09,24,9.10
2009,04,17,09,25,9.20
2009,04,17,09,26,9.20
2009,04,17,09,27,9.20
2009,04,17,09,28,9.20
2009,04,17,09,29,9.20
2009,04,17,09,30,9.20
2009,04,17,09,31,9.20
2009,04,17,09,32,9.20
2009,04,17,09,33,9.20
2009,04,17,09,34,9.20
2009,04,17,09,35,9.30
2009,04,17,09,36,9.30
2009,04,17,09,37,9.40
2009,04,17,09,38,9.40
2009,04,17,09,39,9.40
2009,04,17,09,40,9.40
2009,04,17,09,41,9.50
2009,04,17,09,42,9.50
2009,04,17,09,43,9.50
2009,04,17,09,44,9.60
2009,04,17,09,45,9.60
2009,04,17,09,46,9.60
2009,04,17,09,47,9.60
2009,04,17,09,48,9.60
2009,04,17,09,49,9.60
2009,04,17,09,50,9.60
2009,04,17,09,51,9.60
2009,04,17,09,52,9.60
2009,04,17,09,53,9.50
2009,04,17,09,54,9.60
2009,04,17,09,55,9.60
2009,04,17,09,56,9.60
2009,04,17,09,57,9.50
2009,04,17,09,58,9.50
2009,04,17,09,59,9.50
2009,04,17,10,00,9.50
2009,04,17,10,01,9.40
2009,04,17,10,02,9.40
2009,04,17,10,03,9.40
2009,04,17,10,04,9.50
2009,04,17,10,05,9.50
2009,04,17,10,06,9.60
2009,04,17,10,07,9.60
2009,04,17,10,08,9.60
2009,04,17,10,09,9.70
2009,04,17,10,10,9.70
2009,04,17,10,11,9.70
2009,04,17,10,12,9.80
2009,04,17,10,13,9.80
2009,04,17,10,14,9.80
2009,04,17,10,15,9.80
2009,04,17,10,16,9.80
2009,04,17,10,17,9.80
2009,04,17,10,18,9.80
2009,04,17,10,19,9.70
2009,04,17,10,20,9.70
2009,04,17,10,21,9.70
2009,04,17,10,22,9.70
2009,04,17,10,23,9.70
2009,04,17,10,24,9.70
2009,04,17,10,25,9.70
2009,04,17,10,26,9.70
2009,04,17,10,27,9.80
2009,04,17,10,28,9.90
2009,04,17,10,29,10.00
2009,04,17,10,30,10.00
2009,04,17,10,31,10.10
2009,04,17,10,32,10.10
2009,04,17,10,33,10.20
2009,04,17,10,34,10.10
2009,04,17,10,35,10.00
2009,04,17,10,36,10.00
2009,04,17,10,37,10.00
2009,04,17,10,38,10.00
2009,04,17,10,39,10.10
2009,04,17,10,40,10.10
2009,04,17,10,41,10.20
2009,04,17,10,42,10.30
2009,04,17,10,43,10.30
2009,04,17,10,44,10.30
2009,04,17,10,45,10.30
2009,04,17,10,46,10.40
2009,04,17,10,47,10.40
2009,04,17,10,48,10.50
2009,04,17,10,49,10.60
2009,04,17,10,50,10.70
2009,04,17,10,51,10.70
2009,04,17,10,52,10.80
2009,04,17,10,53,10.80
2009,04,17,10,54,10.90
2009,04,17,10,55,11.00
2009,04,17,10,56,11.00
2009,04,17,10,57,11.10
2009,04,17,10,58,11.10
2009,04,17,10,59,11.10
2009,04,17,11,00,11.10
2009,04,17,11,01,11.10
2009,04,17,11,02,11.10
2009,04,17,11,03,11.10
2009,04,17,11,04,11.20
2009,04,17,11,05,11.20
2009,04,17,11,06,11.20
2009,04,17,11,07,11.10
2009,04,17,11,08,11.10
2009,04,17,11,09,11.00
2009,04,17,11,10,10.90
2009,04,17,11,11,10.90
2009,04,17,11,12,10.80
2009,04,17,11,13,10.80
2009,04,17,11,14,10.70
2009,04,17,11,15,10.60
2009,04,17,11,16,10.60
2009,04,17,11,17,10.60
2009,04,17,11,18,10.60
2009,04,17,11,19,10.60
2009,04,17,11,20,10.60
2009,04,17,11,21,10.60
2009,04,17,11,22,10.60
2009,04,17,11,23,10.70
2009,04,17,11,24,10.80
2009,04,17,11,25,10.80
2009,04,17,11,26,11.00
2009,04,17,11,27,11.00
2009,04,17,11,28,11.10
2009,04,17,11,29,11.20
2009,04,17,11,30,11.30
2009,04,17,11,31,11.40
2009,04,17,11,32,11.40
2009,04,17,11,33,11.50
2009,04,17,11,34,11.50
2009,04,17,11,35,11.60
2009,04,17,11,36,11.70
2009,04,17,11,37,11.70
2009,04,17,11,38,11.70
2009,04,17,11,39,11.70
2009,04,17,11,40,11.80
2009,04,17,11,41,11.90
2009,04,17,11,42,12.00
2009,04,17,11,43,12.10
2009,04,17,11,44,12.10
2009,04,17,11,45,12.10
2009,04,17,11,46,12.10
2009,04,17,11,47,12.10
2009,04,17,11,48,12.10
2009,04,17,11,49,12.10
2009,04,17,11,50,12.10
2009,04,17,11,51,12.10
2009,04,17,11,52,12.10
2009,04,17,11,53,12.10
2009,04,17,11,54,12.10
2009,04,17,11,55,12.10
2009,04,17,11,56,12.10
2009,04,17,11,57,12.10
2009,04,17,11,58,12.10
2009,04,17,11,59,12.20
2009,04,17,12,00,12.20
2009,04,17,12,01,12.20
2009,04,17,12,02,12.30
2009,04,17,12,03,12.30
2009,04,17,12,04,12.40
2009,04,17,12,05,12.50
2009,04,17,12,06,12.60
2009,04,17,12,07,12.70
2009,04,17,12,08,12.80
2009,04,17,12,09,12.80
2009,04,17,12,10,12.90
2009,04,17,12,11,13.00
2009,04,17,12,12,13.00
2009,04,17,12,13,13.10
2009,04,17,12,14,13.10
2009,04,17,12,15,13.20
2009,04,17,12,16,13.20
2009,04,17,12,17,13.30
2009,04,17,12,18,13.30
2009,04,17,12,19,13.40
2009,04,17,12,20,13.40
2009,04,17,12,21,13.50
2009,04,17,12,22,13.50
2009,04,17,12,23,13.60
2009,04,17,12,24,13.60
2009,04,17,12,25,13.60
2009,04,17,12,26,13.60
2009,04,17,12,27,13.60
2009,04,17,12,28,13.90
2009,04,17,12,29,14.00
2009,04,17,12,30,14.10
2009,04,17,12,31,14.10
2009,04,17,12,32,14.10
2009,04,17,12,33,14.10
2009,04,17,12,34,14.10
2009,04,17,12,35,14.10
2009,04,17,12,36,14.10
2009,04,17,12,37,14.10
2009,04,17,12,38,14.10
2009,04,17,12,39,14.10
2009,04,17,12,40,14.10
2009,04,17,12,41,14.00
2009,04,17,12,42,14.00
2009,04,17,12,43,14.00
2009,04,17,12,44,14.00
2009,04,17,12,45,14.00
2009,04,17,12,46,14.00
2009,04,17,12,47,13.90
2009,04,17,12,48,14.00
2009,04,17,12,49,14.00
2009,04,17,12,50,14.10
2009,04,17,12,51,14.20
2009,04,17,12,52,14.30
2009,04,17,12,53,14.40
2009,04,17,12,54,14.40
2009,04,17,12,55,14.30
2009,04,17,12,56,14.40
2009,04,17,12,57,14.40
2009,04,17,12,58,14.50
2009,04,17,12,59,14.60
2009,04,17,13,00,14.60
2009,04,17,13,01,14.60
2009,04,17,13,02,14.60
2009,04,17,13,03,14.60
2009,04,17,13,04,14.60
2009,04,17,13,05,14.60
2009,04,17,13,06,14.50
2009,04,17,13,07,14.50
2009,04,17,13,08,14.50
2009,04,17,13,09,14.40
2009,04,17,13,10,14.40
2009,04,17,13,11,14.40
2009,04,17,13,12,14.30
2009,04,17,13,13,14.20
2009,04,17,13,14,14.10
2009,04,17,13,15,14.10
2009,04,17,13,16,14.10
2009,04,17,13,17,14.10
2009,04,17,13,18,14.10
2009,04,17,13,19,14.10
2009,04,17,13,20,14.10
2009,04,17,13,21,14.20
2009,04,17,13,22,14.30
2009,04,17,13,23,14.40
2009,04,17,13,24,14.40
2009,04,17,13,25,14.20
2009,04,17,13,26,14.10
2009,04,17,13,27,14.10
2009,04,17,13,28,14.00
2009,04,17,13,29,14.10
2009,04,17,13,30,14.30
2009,04,17,13,31,14.40
2009,04,17,13,32,14.50
2009,04,17,13,33,14.50
2009,04,17,13,34,14.40
2009,04,17,13,35,14.20
2009,04,17,13,36,14.20
2009,04,17,13,37,14.30
2009,04,17,13,38,14.40
2009,04,17,13,39,14.50
2009,04,17,13,40,14.60
2009,04,17,13,41,14.60
2009,04,17,13,42,14.60
2009,04,17,13,43,14.60
2009,04,17,13,44,14.70
2009,04,17,13,45,14.70
2009,04,17,13,46,14.70
2009,04,17,13,47,14.50
2009,04,17,13,48,14.40
2009,04,17,13,49,14.40
2009,04,17,13,50,14.50
2009,04,17,13,51,14.60
2009,04,17,13,52,14.60
2009,04,17,13,53,14.70
2009,04,17,13,54,14.70
2009,04,17,13,55,14.70
2009,04,17,13,56,14.70
2009,04,17,13,57,14.70
2009,04,17,13,58,14.80
2009,04,17,13,59,14.80
2009,04,17,14,00,14.80
2009,04,17,14,01,14.90
2009,04,17,14,02,14.90
2009,04,17,14,03,14.90
2009,04,17,14,04,14.90
2009,04,17,14,05,14.90
2009,04,17,14,06,15.00
2009,04,17,14,07,15.00
2009,04,17,14,08,15.00
2009,04,17,14,09,15.00
2009,04,17,14,10,15.00
2009,04,17,14,11,15.10
2009,04,17,14,12,15.00
2009,04,17,14,13,14.90
2009,04,17,14,14,14.30
2009,04,17,14,15,13.90
2009,04,17,14,16,13.70
2009,04,17,14,17,13.70
2009,04,17,14,18,13.80
2009,04,17,14,19,13.90
2009,04,17,14,20,13.90
2009,04,17,14,21,13.80
2009,04,17,14,22,13.80
2009,04,17,14,23,13.80
2009,04,17,14,24,13.80
2009,04,17,14,25,13.70
2009,04,17,14,26,13.70
2009,04,17,14,27,13.70
2009,04,17,14,28,13.70
2009,04,17,14,29,13.80
2009,04,17,14,30,13.70
2009,04,17,14,31,13.60
2009,04,17,14,32,13.50
2009,04,17,14,33,13.30
2009,04,17,14,34,13.30
2009,04,17,14,35,13.20
2009,04,17,14,36,13.20
2009,04,17,14,37,13.20
2009,04,17,14,38,13.00
2009,04,17,14,39,12.90
2009,04,17,14,40,12.80
2009,04,17,14,41,12.80
2009,04,17,14,42,12.90
2009,04,17,14,43,13.00
2009,04,17,14,44,13.20
2009,04,17,14,45,13.30
2009,04,17,14,46,13.50
2009,04,17,14,47,13.60
2009,04,17,14,48,13.70
2009,04,17,14,49,13.80
2009,04,17,14,50,13.80
2009,04,17,14,51,14.00
2009,04,17,14,52,14.20
2009,04,17,14,53,14.20
2009,04,17,14,54,14.30
2009,04,17,14,55,14.40
2009,04,17,14,56,14.60
2009,04,17,14,57,14.70
2009,04,17,14,58,14.80
2009,04,17,14,59,15.00
2009,04,17,15,00,15.00
2009,04,17,15,01,15.20
2009,04,17,15,02,15.30
2009,04,17,15,03,15.30
2009,04,17,15,04,15.20
2009,04,17,15,05,15.20
2009,04,17,15,06,15.00
2009,04,17,15,07,15.00
2009,04,17,15,08,14.90
2009,04,17,15,09,14.80
2009,04,17,15,10,14.80
2009,04,17,15,11,14.70
2009,04,17,15,12,14.60
2009,04,17,15,13,14.60
2009,04,17,15,14,14.60
2009,04,17,15,15,14.40
2009,04,17,15,16,14.30
2009,04,17,15,17,14.30
2009,04,17,15,18,14.30
2009,04,17,15,19,14.30
2009,04,17,15,20,14.30
2009,04,17,15,21,14.30
2009,04,17,15,22,14.20
2009,04,17,15,23,14.20
2009,04,17,15,24,14.30
2009,04,17,15,25,14.40
2009,04,17,15,26,14.50
2009,04,17,15,27,14.60
2009,04,17,15,28,14.50
2009,04,17,15,29,14.50
2009,04,17,15,30,14.40
2009,04,17,15,31,14.40
2009,04,17,15,32,14.40
2009,04,17,15,33,14.40
2009,04,17,15,34,14.60
2009,04,17,15,35,14.70
2009,04,17,15,36,14.80
2009,04,17,15,37,15.00
2009,04,17,15,38,15.00
2009,04,17,15,39,15.00
2009,04,17,15,40,15.00
2009,04,17,15,41,15.00
2009,04,17,15,42,15.00
2009,04,17,15,43,15.00
2009,04,17,15,44,15.00
2009,04,17,15,45,14.90
2009,04,17,15,46,14.80
2009,04,17,15,47,14.80
2009,04,17,15,48,14.60
2009,04,17,15,49,14.50
2009,04,17,15,50,14.30
2009,04,17,15,51,14.20
2009,04,17,15,52,14.10
2009,04,17,15,53,14.10
2009,04,17,15,54,14.20
2009,04,17,15,55,14.40
2009,04,17,15,56,14.40
2009,04,17,15,57,14.30
2009,04,17,15,58,14.20
2009,04,17,15,59,14.20
2009,04,17,16,00,14.30
2009,04,17,16,01,14.30
2009,04,17,16,02,14.40
2009,04,17,16,03,14.50
2009,04,17,16,04,14.50
2009,04,17,16,05,14.60
2009,04,17,16,06,14.60
2009,04,17,16,07,14.70
2009,04,17,16,08,14.70
2009,04,17,16,09,14.70
2009,04,17,16,10,14.80
2009,04,17,16,11,14.80
2009,04,17,16,12,14.80
2009,04,17,16,13,14.70
2009,04,17,16,14,14.60
2009,04,17,16,15,14.60
2009,04,17,16,16,14.50
2009,04,17,16,17,14.50
2009,04,17,16,18,14.50
2009,04,17,16,19,14.50
2009,04,17,16,20,14.50
2009,04,17,16,21,14.50
2009,04,17,16,22,14.50
2009,04,17,16,23,14.50
2009,04,17,16,24,14.60
2009,04,17,16,25,14.60
2009,04,17,16,26,14.60
2009,04,17,16,27,14.50
2009,04,17,16,28,14.40
2009,04,17,16,29,14.30
2009,04,17,16,30,14.20
2009,04,17,16,31,14.00
2009,04,17,16,32,13.80
2009,04,17,16,33,13.70
2009,04,17,16,34,13.70
2009,04,17,16,35,13.60
2009,04,17,16,36,13.60
2009,04,17,16,37,13.70
2009,04,17,16,38,13.80
2009,04,17,16,39,14.00
2009,04,17,16,40,14.10
2009,04,17,16,41,14.10
2009,04,17,16,42,14.20
2009,04,17,16,43,14.10
2009,04,17,16,44,14.10
2009,04,17,16,45,14.20
2009,04,17,16,46,14.10
2009,04,17,16,47,14.00
2009,04,17,16,48,13.80
2009,04,17,16,49,13.70
2009,04,17,16,50,13.50
2009,04,17,16,51,13.50
2009,04,17,16,52,13.40
2009,04,17,16,53,13.50
2009,04,17,16,54,13.50
2009,04,17,16,55,13.40
2009,04,17,16,56,13.40
2009,04,17,16,57,13.40
2009,04,17,16,58,13.50
2009,04,17,16,59,13.50
2009,04,17,17,00,13.60
2009,04,17,17,01,13.70
2009,04,17,17,02,13.70
2009,04,17,17,03,13.80
2009,04,17,17,04,13.90
2009,04,17,17,05,14.00
2009,04,17,17,06,14.00
2009,04,17,17,07,14.10
2009,04,17,17,08,14.10
2009,04,17,17,09,14.10
2009,04,17,17,10,14.10
2009,04,17,17,11,14.10
2009,04,17,17,12,14.10
2009,04,17,17,13,14.10
2009,04,17,17,14,14.10
2009,04,17,17,15,14.10
2009,04,17,17,16,14.10
2009,04,17,17,17,14.00
2009,04,17,17,18,13.90
2009,04,17,17,19,13.80
2009,04,17,17,20,13.80
2009,04,17,17,21,13.80
2009,04,17,17,22,13.70
2009,04,17,17,23,13.70
2009,04,17,17,24,13.70
2009,04,17,17,25,13.70
2009,04,17,17,26,13.70
2009,04,17,17,27,13.70
2009,04,17,17,28,13.70
2009,04,17,17,29,13.70
2009,04,17,17,30,13.70
2009,04,17,17,31,13.60
2009,04,17,17,32,13.60
2009,04,17,17,33,13.60
2009,04,17,17,34,13.60
2009,04,17,17,35,13.70
2009,04,17,17,36,13.70
2009,04,17,17,37,13.80
2009,04,17,17,38,13.80
2009,04,17,17,39,13.90
2009,04,17,17,40,14.00
2009,04,17,17,41,14.10
2009,04,17,17,42,14.10
2009,04,17,17,43,14.20
2009,04,17,17,44,14.30
2009,04,17,17,45,14.30
2009,04,17,17,46,14.30